sat.trackr.live / text

‹ back to catalog

STARLINK-37138

NORAD 68308 · 2026-057Q

PAYLOAD ACTIVE UNKNOWN

§ Identity

Operator
Country
US
Launch date
2026-03-20
Launch site
AFWTR
Launch vehicle
Mass (kg)
RCS (m²)

Purposes: comms

External: N2YO · Heavens-Above · Gunter

§ Orbital elements

Epoch: 2026-09-19T13:38:13.684416Z

Period
93.91 min
Inclination
97.2882°
Eccentricity
0.0001152
Mean motion
15.33456221 rev/d
Perigee alt
464.7 km
Apogee alt
466.3 km
Semi-major
6,843.6 km
B*
8.7026e-4
RAAN
28.0158°
Arg perigee
64.9003°
Mean anomaly
295.2359°
Rev number
2,837

§ Raw data

STARLINK-371381 68308U 26057Q   26262.56821394  .00028135  00000+0  87026-3 0  99952 68308  97.2882  28.0158 0001152  64.9003 295.2359 15.33456221 28375

JSON: /api/v1/satellites/68308 · /tle

For live sub-satellite position, see the globe view (requires WebGL).

§ Visibility from observer

Set your observer location to see the next 7 days of passes ≥ 10°. The values pass through the URL so the page stays shareable.

No JS? Fill the form by hand. The geolocation button needs JavaScript.